Time,B instrument,Bx,By,Bz,sigma B,Ion instrument,Status,Tp_par,Tp_perp,carrot,r_sun,clat,clong,earth_he_angle,n_p,vp_x,vp_y,vp_z,vth_p_par,vth_p_perp
1980-03-02 00:39:24,-1,nan,nan,nan,nan,1,3,nan,nan,1692,0.98066443,-0.89029628,143.20142,281.35767,nan,409.44,20.6618,5.61516,nan,nan
1980-03-02 01:01:00,-1,nan,nan,nan,nan,1,3,nan,nan,1692,0.98064691,-0.89163774,143.00146,281.35303,nan,411.527,17.1912,55.8092,nan,nan
1980-03-02 01:22:36,-1,nan,nan,nan,nan,1,4,nan,nan,1692,0.9806301,-0.89291835,142.79785,281.34863,nan,nan,nan,nan,nan,nan
1980-03-02 01:44:12,-1,nan,nan,nan,nan,1,3,nan,nan,1692,0.98061246,-0.89425993,142.5979,281.34399,nan,396.009,9.6636,0.202768,nan,nan
1980-03-02 02:05:48,-1,nan,nan,nan,nan,1,3,nan,nan,1692,0.98059559,-0.8955406,142.39429,281.3396,nan,404.399,-9.03438,-18.0844,nan,nan
1980-03-02 02:27:24,-1,nan,nan,nan,nan,1,3,nan,nan,1692,0.98057789,-0.89688224,142.19067,281.33521,nan,401.591,8.69591,-3.05364,nan,nan
1980-03-02 03:10:36,-1,nan,nan,nan,nan,1,3,nan,nan,1692,0.9805432,-0.89950454,141.78711,281.32617,nan,408.272,-14.9699,65.144,nan,nan
1980-03-02 03:53:48,-1,nan,nan,nan,nan,1,3,nan,nan,1692,0.98050839,-0.90212685,141.38379,281.31738,nan,403.509,19.3915,39.4282,nan,nan
1980-03-02 04:15:24,-1,nan,nan,nan,nan,1,3,nan,nan,1692,0.98049045,-0.90346855,141.17993,281.31274,nan,388.273,18.0981,20.7012,nan,nan
1980-03-02 04:37:00,-1,nan,nan,nan,nan,1,3,nan,nan,1692,0.98047251,-0.90481031,140.97998,281.30811,nan,384.162,9.59361,19.2868,nan,nan
1980-03-02 05:20:13,-1,nan,nan,nan,nan,1,3,nan,nan,1692,0.9804374,-0.90743279,140.57275,281.29932,nan,391.057,8.1455,-5.54055,nan,nan
1980-03-02 05:41:49,-1,nan,nan,nan,nan,1,3,nan,nan,1692,0.98042017,-0.90871358,140.37305,281.29492,nan,385.79,5.93883,-2.88377,nan,nan
1980-03-02 06:03:25,-1,nan,nan,nan,nan,1,4,nan,nan,1692,0.98040211,-0.91005528,140.16919,281.29028,nan,nan,nan,nan,nan,nan
1980-03-02 06:25:01,-1,nan,nan,nan,nan,1,3,nan,nan,1692,0.98038399,-0.91139704,139.96924,281.28564,nan,386.366,-1.40238,-5.0655,nan,nan
1980-03-02 06:46:37,-1,nan,nan,nan,nan,1,3,nan,nan,1692,0.98036671,-0.91267788,139.76563,281.28125,nan,403.825,21.3611,10.9514,nan,nan
1980-03-02 07:29:49,-1,nan,nan,nan,nan,1,3,nan,nan,1692,0.98033112,-0.91530067,139.3623,281.27246,nan,380.141,13.3827,18.2635,nan,nan
1980-03-02 07:51:25,-1,nan,nan,nan,nan,1,4,nan,nan,1692,0.98031288,-0.91664255,139.15845,281.26782,nan,nan,nan,nan,nan,nan
1980-03-02 08:27:21,-1,nan,nan,nan,nan,1,4,nan,nan,1692,0.98029315,-0.77884692,138.74234,281.17984,nan,nan,nan,nan,nan,nan
1980-03-02 08:34:37,1,-3.5,2.4,-0.6,0.0,1,1,21546.9,28745.6,1692,0.98027706,-0.91926533,138.75513,281.25903,2.50397,379.85,7.59693,3.27111,18.8604,21.7843
1980-03-02 08:48:57,1,-3.6,2.8,1.0,0.0,1,1,21107.4,28483.3,1692,0.98027515,-0.7801463,138.53867,281.17538,2.4871,379.747,7.2116,3.83902,18.667,21.6847
1980-03-02 09:30:17,-1,nan,nan,nan,nan,1,3,nan,nan,1692,0.98023027,-0.92268115,138.2356,281.24731,nan,382.397,18.1493,2.43287,nan,nan
1980-03-02 09:30:57,1,-3.04,1.33333,-2.01333,0.566078,1,1,22079.3,34509.8,1692,0.98023027,-0.92268115,138.22778,281.24731,2.86355,387.36,2.66422,-13.7196,19.092,23.8687
1980-03-02 09:31:38,1,-2.91333,1.65333,-1.76667,0.537153,1,1,20774.8,36355.2,1692,0.98022944,-0.92274219,138.21973,281.24707,2.76499,386.841,-2.80246,-16.3017,18.5194,24.4986
1980-03-02 09:32:18,1,-3.12667,1.68667,-1.45333,0.649307,1,1,25515.5,31187.3,1692,0.9802286,-0.92280316,138.21558,281.24683,2.96985,388.424,8.76625,-8.36232,20.5239,22.6906
1980-03-02 09:32:59,1,-2.14375,0.575,-2.43125,1.13258,1,1,24935.0,24464.1,1692,0.9802286,-0.92280316,138.20776,281.24683,2.96002,399.876,-14.523,-23.0631,20.2891,20.0966
1980-03-02 09:33:40,1,-1.71333,-0.813333,-2.88,0.464662,1,1,35768.5,28701.4,1692,0.98022777,-0.92286414,138.20386,281.24683,3.22889,401.256,-22.2634,-25.2738,24.3001,21.7676
1980-03-02 09:34:20,1,-1.45333,-0.806667,-2.9,1.09808,1,1,25484.3,24535.9,1692,0.98022693,-0.92292511,138.1958,281.24658,3.17404,406.776,-38.2686,-21.7432,20.5113,20.1261
1980-03-02 09:35:01,1,-2.38,-0.373333,-2.69333,0.5393,1,1,28418.7,27272.2,1692,0.9802261,-0.92298615,138.18774,281.24634,2.86502,392.319,-18.6848,-22.6344,21.6601,21.2187
1980-03-02 09:35:41,1,-2.40667,2.04,-1.66667,0.338493,1,1,29833.4,38024.4,1692,0.9802261,-0.92298615,138.18384,281.24634,2.61893,390.351,4.99932,-14.328,22.1926,25.0547
1980-03-02 10:11:59,-1,nan,nan,nan,nan,1,3,nan,nan,1692,0.98019588,-0.92518216,137.84424,281.23877,nan,368.997,-12.1757,30.4394,nan,nan
1980-03-02 10:12:39,1,-4.98571,-0.478571,3.08571,0.370121,1,1,25167.8,20276.6,1692,0.98019505,-0.92524314,137.83618,281.23853,3.57083,369.106,-19.6105,28.5467,20.3836,18.296
1980-03-02 10:13:20,1,-4.98,-0.306667,2.8,0.42374,1,1,42092.9,35675.4,1692,0.98019421,-0.92530411,137.83228,281.23853,2.53023,399.405,-80.1155,33.6334,26.361,24.2685
1980-03-02 10:14:00,1,-5.02,-0.38,3.04,0.354401,1,1,27508.4,24093.5,1692,0.98019332,-0.92536515,137.82422,281.23828,3.12836,368.206,-17.8948,35.8886,21.3104,19.9438
1980-03-02 10:14:45,1,-4.08,-2.05333,4.21333,0.348202,1,1,34518.5,32883.3,1692,0.98019332,-0.92536515,137.81641,281.23828,2.60055,404.057,-102.215,51.2802,23.8717,23.2994
1980-03-02 10:16:06,1,-4.96,-0.52,3.06667,0.41258,1,1,23781.1,29352.5,1692,0.98019165,-0.92548716,137.8042,281.23779,3.20536,368.603,-16.2508,36.1333,19.8141,22.0131
1980-03-02 10:16:47,1,-4.94286,-0.571429,3.11429,0.64254,1,1,26871.5,20888.3,1692,0.98019165,-0.92548716,137.80029,281.23779,3.12547,368.042,-17.7644,31.4101,21.0622,18.5699
1980-03-02 10:18:04,1,-5.00714,-1.59286,3.14286,0.761242,1,1,30598.7,24255.6,1692,0.98018998,-0.92560911,137.78809,281.2373,3.22276,368.657,-26.8672,36.6016,22.4755,20.0108
1980-03-02 10:18:44,1,-5.35714,-0.207143,2.34286,0.651255,1,1,34851.3,31410.8,1692,0.98018998,-0.92560917,137.78027,281.2373,2.9803,363.624,-14.9344,25.5592,23.9865,22.7718
1980-03-02 10:19:25,1,-5.14286,0.228571,2.11429,0.331662,1,1,24244.1,23623.8,1692,0.98018914,-0.92567015,137.77222,281.23706,2.80724,367.68,-13.4097,22.9792,20.006,19.7484
1980-03-02 10:20:05,1,-5.09286,-0.514286,3.22857,0.384986,1,1,24553.0,30963.8,1692,0.98018831,-0.92573112,137.76831,281.23706,3.0027,369.768,-21.2432,35.1872,20.1331,22.6092
1980-03-02 10:20:46,1,-5.21333,-0.0666667,2.50667,0.492612,1,1,19382.1,31135.8,1692,0.98018831,-0.92573118,137.7605,281.23706,2.98337,365.225,-12.8393,30.5867,17.8879,22.6719
1980-03-02 10:22:47,-1,nan,nan,nan,nan,1,3,nan,nan,1692,0.98019654,-0.7857725,137.6637,281.15588,nan,365.996,-8.05635,25.199,nan,nan
1980-03-02 10:24:08,1,-5.39286,0.585714,2.17143,0.347953,1,1,26690.8,30893.1,1692,0.98018491,-0.92597514,137.72827,281.23608,2.93447,365.86,-10.4502,28.329,20.9913,22.5834
1980-03-02 10:24:49,1,-5.4,0.757143,1.91429,0.298978,1,1,23838.5,30434.4,1692,0.98018491,-0.9259752,137.72437,281.23608,2.91314,369.301,-4.2932,19.9286,19.838,22.4151
1980-03-02 10:26:10,1,-5.01333,0.553333,2.22,0.386322,1,1,20330.2,34355.1,1692,0.98018324,-0.92609715,137.71216,281.2356,2.97423,366.588,-8.6973,28.9912,18.3201,23.8152
1980-03-02 10:26:50,1,-5.07857,0.821429,2.08571,0.314448,1,1,28491.1,25735.8,1692,0.98018324,-0.92609721,137.70435,281.2356,3.07783,367.691,-5.14011,27.9274,21.6876,20.6123
1980-03-02 10:27:31,1,-5.19286,0.192857,2.57143,0.367146,1,1,24860.7,23360.5,1692,0.98018241,-0.92615819,137.69653,281.2356,3.01953,368.735,-14.5307,28.3145,20.2588,19.6381
1980-03-02 10:28:11,1,-5.12857,0.314286,2.4,0.5089,1,1,27404.1,27465.3,1692,0.98018152,-0.92621917,137.69238,281.23535,3.16723,367.748,-11.0026,31.1223,21.2699,21.2936
1980-03-02 10:28:52,1,-5.14,0.786667,1.52667,0.266166,1,1,25578.0,29686.4,1692,0.98018152,-0.92621922,137.68457,281.23535,3.09255,369.256,-5.10013,20.3268,20.549,22.1379
1980-03-02 10:29:32,1,-4.95,0.685714,2.07143,0.405385,1,1,30228.9,30402.0,1692,0.98018068,-0.9262802,137.68042,281.23511,3.06855,368.59,-8.83277,26.8678,22.3393,22.4032
1980-03-02 10:30:13,1,-4.98571,0.757143,1.87143,0.3,1,1,25346.1,31105.5,1692,0.98017985,-0.92634118,137.67236,281.23486,3.157,370.601,-4.16525,25.0278,20.4557,22.6609
1980-03-02 10:30:53,1,-5.22143,0.257143,1.73571,0.332738,1,1,35319.1,36975.0,1692,0.98017985,-0.92634118,137.66846,281.23486,3.05149,365.969,-10.2043,24.1442,24.147,24.7065
1980-03-02 10:31:34,1,-5.22857,0.478571,1.37143,0.348539,1,1,23195.3,20953.8,1692,0.98017901,-0.92640215,137.6604,281.23462,3.52596,368.535,-16.4703,17.8598,19.5685,18.599
1980-03-02 10:32:14,1,-5.37143,0.271429,1.74286,0.341366,1,1,34992.8,35498.0,1692,0.98017818,-0.92646319,137.65234,281.23438,3.01831,366.625,-15.7919,20.5222,24.0352,24.2081
1980-03-02 10:32:55,1,-5.32143,-0.0785714,1.82143,0.411505,1,1,20249.4,16058.3,1692,0.98017818,-0.92646319,137.64844,281.23438,4.31236,367.443,-19.6973,21.786,18.2837,16.282
1980-03-02 10:33:35,1,-5.32143,-0.478571,1.15714,0.45051,1,1,30364.9,30165.1,1692,0.98017734,-0.92652416,137.64063,281.23438,3.12457,369.32,-26.1146,11.7039,22.3895,22.3157
1980-03-02 10:34:16,1,-5.4,-0.242857,1.25714,0.240323,1,1,24317.4,21075.4,1692,0.98017645,-0.92658514,137.63647,281.23413,3.5565,366.541,-18.203,20.0177,20.0363,18.6529
1980-03-02 10:34:56,-1,nan,nan,nan,nan,1,4,nan,nan,1692,0.98017645,-0.9265852,137.62866,281.23413,nan,nan,nan,nan,nan,nan
1980-03-02 10:35:37,1,-5.35714,-0.171429,2.11429,0.348466,1,1,22455.2,21010.6,1692,0.98017561,-0.92664617,137.62061,281.23389,3.35741,367.182,-18.6679,24.4209,19.2538,18.6242
1980-03-02 10:36:17,-1,nan,nan,nan,nan,1,4,nan,nan,1692,0.98017478,-0.92670715,137.61646,281.23364,nan,nan,nan,nan,nan,nan
1980-03-02 10:36:58,1,-5.30714,-0.0214286,1.92143,0.368048,1,1,20469.7,18106.2,1692,0.98017478,-0.92670721,137.60864,281.23364,3.41412,365.805,-16.2751,19.5848,18.3829,17.2891
1980-03-02 10:37:38,1,-5.17857,0.378571,1.65714,0.368533,1,1,30598.9,28441.0,1692,0.98017395,-0.92676818,137.60449,281.2334,2.84861,364.131,-11.965,21.0396,22.4756,21.6686
1980-03-02 10:38:19,1,-5.23077,0.453846,1.41538,0.313408,1,1,22734.4,30179.9,1692,0.98017311,-0.92682916,137.59644,281.23315,3.10208,368.212,-11.5223,13.1196,19.3731,22.3212
1980-03-02 10:38:59,1,-5.10714,0.528571,1.75,0.479051,1,1,28541.1,27288.3,1692,0.98017228,-0.92689013,137.59229,281.23291,2.9792,363.26,-7.70172,21.0584,21.7067,21.2249
1980-03-02 10:39:40,-1,nan,nan,nan,nan,1,4,nan,nan,1692,0.98017228,-0.92689019,137.58447,281.23291,nan,nan,nan,nan,nan,nan
1980-03-02 10:40:20,-1,nan,nan,nan,nan,1,4,nan,nan,1692,0.98017144,-0.92695117,137.57666,281.23291,nan,nan,nan,nan,nan,nan
1980-03-02 10:41:01,1,-5.14286,-0.335714,0.314286,1.03246,1,1,21599.8,26444.2,1692,0.98017055,-0.92701215,137.57251,281.23267,2.95906,364.838,-17.715,9.01539,18.8835,20.8941
1980-03-02 10:42:26,1,-5.26667,0.186667,0.986667,0.352893,1,1,19797.1,31865.3,1692,0.98016971,-0.92707318,137.56055,281.23242,2.90719,367.276,-11.2318,15.2133,18.0783,22.9359
1980-03-02 10:43:06,1,-5.06429,0.2,1.00714,0.405448,1,1,33716.7,23252.0,1692,0.98016888,-0.92713416,137.55249,281.23218,3.16041,364.995,-9.52471,14.3928,23.5928,19.5924
1980-03-02 10:43:47,1,-5.04286,0.342857,0.864286,0.374234,1,1,23642.1,27541.2,1692,0.98016888,-0.92713422,137.54468,281.23218,3.20865,368.061,-12.638,13.9344,19.7561,21.323
1980-03-02 10:44:23,1,-5.02857,0.25,0.492857,0.306228,1,1,34663.9,27887.0,1692,0.98016804,-0.92719519,137.54053,281.23193,3.21316,367.367,-10.4397,10.1066,23.922,21.4565
1980-03-02 10:45:04,1,-4.79286,0.6,0.0428571,0.779357,1,1,22102.5,27323.8,1692,0.98016721,-0.92725617,137.53247,281.23169,3.13594,368.539,-15.0229,0.989063,19.102,21.2387
1980-03-02 10:45:44,1,-4.61333,1.29333,0.3,0.295146,1,1,13785.8,26203.9,1692,0.98016721,-0.92725623,137.52856,281.23169,3.09698,369.153,-2.74353,5.93075,15.086,20.7989
1980-03-02 10:46:25,-1,nan,nan,nan,nan,1,4,nan,nan,1692,0.98016638,-0.9273172,137.52051,281.23145,nan,nan,nan,nan,nan,nan
1980-03-02 10:47:06,1,-4.78,0.94,0.486667,0.332399,1,1,23465.7,26660.1,1692,0.98016554,-0.92737818,137.5166,281.23145,3.0492,368.445,-3.70153,8.03206,19.6822,20.9792
1980-03-02 10:47:46,1,-4.66429,1.10714,0.642857,0.232335,1,1,21469.5,15746.7,1692,0.98016554,-0.92737824,137.50879,281.23145,3.57826,368.695,6.10621,16.888,18.8265,16.1233
1980-03-02 10:48:26,1,-4.65,1.12857,0.671429,0.35377,1,1,29343.1,37583.8,1692,0.98016465,-0.92743921,137.50073,281.2312,2.99366,369.754,2.39247,15.232,22.0096,24.9091
1980-03-02 10:49:07,1,-4.60769,0.976923,0.361538,0.196719,1,1,22303.2,30795.4,1692,0.98016381,-0.92750019,137.49658,281.23096,2.64326,367.564,-0.0407246,5.01544,19.1885,22.5476
1980-03-02 10:49:48,1,-4.53571,0.65,0.0571429,0.827277,1,1,9447.18,28154.3,1692,0.98016381,-0.92750025,137.48877,281.23096,3.64455,367.66,-3.08311,-2.31546,12.4885,21.5591
1980-03-02 10:50:28,1,-4.80714,1.17143,1.75714,0.780666,1,1,19419.4,32460.2,1692,0.98016298,-0.92756122,137.48462,281.23071,3.01974,368.322,1.80743,26.7243,17.9051,23.1491
1980-03-02 10:51:08,1,-5.06154,1.20769,1.86154,0.312652,1,1,27166.1,34262.7,1692,0.98016214,-0.9276222,137.47656,281.23047,2.75467,365.698,1.7832,26.1968,21.1773,23.7831
1980-03-02 10:51:49,1,-4.77143,1.4,1.61429,0.293466,1,1,24770.0,21905.5,1692,0.98016214,-0.9276222,137.47266,281.23047,3.05335,366.328,6.21332,19.7729,20.2218,19.0167
1980-03-02 10:52:30,1,-4.82857,1.2,1.11429,0.359137,1,1,29703.8,33904.9,1692,0.98016131,-0.92768323,137.4646,281.23022,2.89868,369.374,1.49055,12.3861,22.1444,23.6586
1980-03-02 10:53:10,1,-4.89286,0.485714,0.378571,0.254951,1,1,20666.9,28103.2,1692,0.98016047,-0.92774421,137.45679,281.23022,3.07189,369.025,-9.17432,3.59925,18.4712,21.5395
1980-03-02 10:53:50,1,-4.85,0.8,0.728571,0.280761,1,1,11611.2,24767.9,1692,0.98016047,-0.92774421,137.45288,281.23022,3.31705,367.2,-4.94345,7.63233,13.8451,20.221
1980-03-02 10:54:31,1,-4.96923,0.738462,0.761538,0.275853,1,1,20551.1,28434.8,1692,0.98015958,-0.92780519,137.44482,281.22998,2.91177,368.601,-2.5893,7.37266,18.4194,21.6662
1980-03-02 10:55:52,1,-4.97857,0.2,0.864286,0.324666,1,1,23304.6,30820.6,1692,0.98015875,-0.92786622,137.43286,281.22974,3.12572,367.364,-12.6578,11.9172,19.6145,22.5568
1980-03-02 10:57:13,1,-5.08571,-0.328571,0.428571,0.331047,1,1,22768.8,26238.8,1692,0.98015708,-0.92798817,137.42065,281.22925,3.03713,367.761,-16.2435,9.64616,19.3878,20.8128
1980-03-02 10:58:02,-1,nan,nan,nan,nan,1,4,nan,nan,1692,0.98015624,-0.92804921,137.4126,281.229,nan,nan,nan,nan,nan,nan
1980-03-02 10:58:42,1,-5.09333,-0.54,0.72,0.271948,1,1,23652.3,26191.9,1692,0.98015624,-0.92804921,137.40479,281.229,3.18256,366.53,-21.5757,8.81978,19.7603,20.7942
1980-03-02 10:59:23,1,-4.86429,-0.628571,0.428571,0.386309,1,1,35519.0,26688.2,1692,0.98015541,-0.92811018,137.40063,281.22876,3.20591,366.479,-16.5266,4.09425,24.2152,20.9902
1980-03-02 11:00:03,1,-4.9,-1.05714,0.514286,0.478944,1,1,26855.9,18631.2,1692,0.98015457,-0.92817122,137.39282,281.22876,3.54604,368.961,-22.7936,-2.9519,21.0561,17.5379
1980-03-02 11:00:35,1,-5.09286,0.128571,1.14286,0.377221,1,1,33555.9,16876.7,1692,0.98015457,-0.92817122,137.38892,281.22876,3.94252,365.377,-6.95112,14.6755,23.5365,16.6917
1980-03-02 11:01:16,1,-4.85714,-1.30714,0.935714,0.488124,1,1,24579.3,21128.3,1692,0.98015368,-0.92823219,137.38086,281.22852,3.33051,367.128,-23.1516,10.8284,20.1438,18.6763
1980-03-02 11:01:56,1,-4.98,-1.35333,1.03333,0.532583,1,1,28196.0,30845.0,1692,0.98015368,-0.92823225,137.37695,281.22852,2.90139,371.286,-23.7931,10.1308,21.575,22.5658
1980-03-02 11:02:37,1,-4.85714,0.285714,0.95,0.457199,1,1,20482.7,30395.8,1692,0.98015285,-0.92829323,137.3689,281.22827,3.05497,367.506,-7.98567,10.2509,18.3887,22.4009
1980-03-02 11:03:17,1,-5.00714,-0.0142857,0.75,0.422698,1,1,29615.4,13834.6,1692,0.98015201,-0.9283542,137.36475,281.22803,4.48502,364.281,-5.56387,13.9694,22.1114,15.1127
1980-03-02 11:03:58,1,-5.05,-0.228571,0.885714,0.323012,1,1,22815.1,23936.2,1692,0.98015201,-0.92835426,137.35693,281.22803,3.0549,366.646,-16.9895,7.06238,19.4075,19.8786
1980-03-02 11:04:39,1,-5.37143,-0.578571,1.17143,0.329579,1,1,28699.2,21609.1,1692,0.98015118,-0.92841524,137.34888,281.22778,2.82478,363.991,-12.3424,12.84,21.7667,18.8876
1980-03-02 11:05:19,1,-5.25385,-0.376923,1.0,0.329963,1,1,26091.0,22050.6,1692,0.98015028,-0.92847621,137.34473,281.22754,3.14953,365.025,-16.1157,14.7952,20.7541,19.0796
1980-03-02 11:05:59,1,-4.87857,-0.285714,0.85,0.299489,1,1,38432.3,29080.6,1692,0.98014945,-0.92853719,137.33667,281.22729,3.20025,366.191,-11.5455,8.56052,25.1887,21.9109
1980-03-02 11:06:40,1,-4.98571,-0.0142857,0.478571,0.420702,1,1,20968.3,29801.4,1692,0.98014945,-0.92853725,137.33276,281.22729,3.04904,368.071,-9.67697,6.38514,18.6054,22.1807
1980-03-02 11:07:21,1,-4.37857,1.0,0.0142857,0.515524,1,1,13660.7,24077.0,1692,0.98014861,-0.92859823,137.32495,281.22729,3.09286,369.915,-1.87477,-2.27568,15.0174,19.9369
1980-03-02 11:08:01,1,-4.1,1.2,0.264286,0.276734,1,1,21026.0,27264.4,1692,0.98014778,-0.9286592,137.3208,281.22705,3.20741,373.37,4.70348,-0.270259,18.631,21.2156
1980-03-02 11:10:03,1,-5.07143,0.414286,1.38571,0.278113,1,1,21746.2,17192.5,1692,0.98014605,-0.92878121,137.30078,281.22656,3.76186,362.081,-6.43898,19.3146,18.9474,16.8472
1980-03-02 11:10:43,1,-4.7,0.407143,1.16429,0.285536,1,1,21760.5,25480.4,1692,0.98014605,-0.92878127,137.29297,281.22656,2.82484,352.105,48.6452,16.6134,18.9536,20.5098
1980-03-02 11:11:23,1,-4.73571,0.585714,1.55714,0.452262,1,1,30859.1,28140.0,1692,0.98014522,-0.92884225,137.28882,281.22632,2.85386,362.793,-6.76617,18.4425,22.5709,21.5536
1980-03-02 11:12:03,1,-4.67143,0.564286,0.685714,0.403366,1,1,21986.8,30628.6,1692,0.98014438,-0.92890322,137.28076,281.22607,2.84296,365.726,-7.0009,11.498,19.0519,22.4865
1980-03-02 11:12:44,1,-4.46154,0.715385,0.484615,0.408055,1,1,34933.4,31867.9,1692,0.98014438,-0.92890328,137.27686,281.22607,3.1006,367.791,-6.27195,9.79003,24.0147,22.9369
1980-03-02 11:13:07,-1,nan,nan,nan,nan,1,4,nan,nan,1692,0.9801541,-0.78878552,137.19226,281.14539,nan,nan,nan,nan,nan,nan
1980-03-02 11:13:24,1,-4.85714,0.378571,0.542857,0.319837,1,1,22694.5,29031.3,1692,0.98014355,-0.92896426,137.26904,281.22607,2.85082,367.018,-10.1187,6.45537,19.3561,21.8923
1980-03-02 11:14:05,1,-4.73333,0.906667,0.46,0.330521,1,1,14054.2,24436.8,1692,0.98014271,-0.92902523,137.26099,281.22583,3.25515,368.056,-2.70874,5.17626,15.2322,20.0854
1980-03-02 11:14:46,1,-4.79286,0.892857,0.757143,0.299148,1,1,22257.1,29625.4,1692,0.98014271,-0.92902529,137.25708,281.22583,3.17552,367.857,1.80561,8.77785,19.1687,22.1152
1980-03-02 11:15:27,1,-4.73846,1.06923,0.792308,0.321976,1,1,26537.9,30292.9,1692,0.98014182,-0.92908627,137.24902,281.22559,2.87798,369.831,1.06638,8.40987,20.9311,22.3629
1980-03-02 11:16:07,1,-4.65,1.25,1.38571,0.484557,1,1,23353.0,23869.7,1692,0.98014098,-0.92914724,137.24487,281.22534,3.00198,369.14,6.09385,15.7979,19.6349,19.851
1980-03-02 11:16:47,1,-5.11429,-0.0642857,1.68571,0.334496,1,1,22224.9,18688.1,1692,0.98014098,-0.9291473,137.23706,281.22534,3.34247,361.978,-7.71046,20.2621,19.1548,17.5647
1980-03-02 11:17:28,1,-4.96429,0.0142857,1.18571,0.310118,1,1,22517.3,18257.6,1692,0.98014015,-0.92920828,137.229,281.2251,3.16958,364.002,-14.6557,17.5154,19.2804,17.3612
1980-03-02 11:18:09,1,-4.93571,0.0571429,0.45,0.376206,1,1,27573.4,25112.2,1692,0.98013932,-0.92926925,137.22485,281.22485,2.97687,365.636,-11.0501,4.21826,21.3355,20.3611
1980-03-02 11:19:29,1,-4.98571,0.428571,0.721429,0.296321,1,1,29432.0,26687.3,1692,0.98013842,-0.92933029,137.21289,281.22461,2.901,364.36,-6.55703,10.116,22.0428,20.9899
1980-03-02 11:20:10,1,-4.87857,0.821429,0.821429,0.332814,1,1,23219.8,28890.5,1692,0.98013759,-0.92939126,137.20508,281.22461,2.95045,368.7,0.945575,9.30744,19.5789,21.8392
1980-03-02 11:20:51,1,-4.77857,0.757143,1.05,0.395768,1,1,20721.8,29495.7,1692,0.98013759,-0.92939126,137.20117,281.22461,2.82462,365.247,-4.16757,11.0931,18.4957,22.0667
1980-03-02 11:21:31,1,-4.89286,0.128571,0.942857,0.35377,1,1,22984.8,28598.7,1692,0.98013675,-0.92945224,137.19312,281.22437,2.89615,365.102,-11.8898,8.26211,19.4795,21.7286
1980-03-02 11:22:11,1,-5.00714,-0.564286,1.34286,0.289792,1,1,66780.7,37366.7,1692,0.98013592,-0.92951328,137.18506,281.22412,3.76275,356.987,-15.3325,14.3592,33.2035,24.8371
1980-03-02 11:22:52,-1,nan,nan,nan,nan,1,3,nan,nan,1692,0.98013592,-0.92951328,137.18115,281.22412,nan,365.033,-12.6027,17.7473,nan,nan
1980-03-02 11:24:13,-1,nan,nan,nan,nan,1,3,nan,nan,1692,0.98013419,-0.92963529,137.16895,281.22363,nan,367.552,-5.44831,-1.64336,nan,nan
1980-03-02 11:24:53,-1,nan,nan,nan,nan,1,3,nan,nan,1692,0.98013419,-0.92963529,137.16113,281.22363,nan,378.272,-2.40014,-10.5088,nan,nan
1980-03-02 11:25:34,-1,nan,nan,nan,nan,1,3,nan,nan,1692,0.98013335,-0.92969626,137.15308,281.22339,nan,375.683,4.89716,-3.62638,nan,nan
1980-03-02 11:26:15,-1,nan,nan,nan,nan,1,3,nan,nan,1692,0.98013252,-0.92975724,137.14893,281.22314,nan,375.547,-1.3886,-6.81949,nan,nan
1980-03-02 11:26:55,-1,nan,nan,nan,nan,1,3,nan,nan,1692,0.98013252,-0.9297573,137.14111,281.22314,nan,379.704,13.1797,0.0893717,nan,nan
1980-03-02 11:27:35,-1,nan,nan,nan,nan,1,3,nan,nan,1692,0.98013169,-0.92981827,137.13721,281.22314,nan,375.185,8.81661,2.47391,nan,nan
1980-03-02 11:28:16,1,-4.50714,0.335714,-0.314286,0.604659,1,1,27347.6,31667.6,1692,0.98013079,-0.92987925,137.12915,281.2229,2.5713,370.783,-3.25733,-4.7756,21.248,22.8647
1980-03-02 11:29:37,1,-4.53571,0.8,0.185714,0.444754,1,1,24901.4,28491.9,1692,0.98012996,-0.92994028,137.11719,281.22266,3.04153,371.336,3.28092,-0.774193,20.2754,21.688
1980-03-02 11:30:17,1,-4.38462,-0.461538,-8.54018e-18,1.08867,1,1,30908.1,25319.7,1692,0.98012912,-0.93000126,137.10913,281.22241,2.73305,367.449,-14.6406,-0.185309,22.5888,20.445
1980-03-02 11:30:58,1,-4.19286,0.885714,-0.0428571,0.469096,1,1,23232.6,29951.9,1692,0.98012912,-0.93000132,137.10522,281.22241,2.91476,369.511,-1.14309,-1.30817,19.5842,22.2367
1980-03-02 11:31:39,1,-3.53571,1.11429,-1.33571,0.674083,1,1,20572.9,34779.8,1692,0.98012829,-0.93006229,137.09717,281.22217,2.84826,376.292,2.78696,-7.86367,18.4292,23.9619
1980-03-02 11:32:19,1,-3.37143,1.44286,-1.25714,0.482341,1,1,21455.6,31559.7,1692,0.98012745,-0.93012327,137.09302,281.22192,2.61024,379.339,3.95968,-10.3626,18.8204,22.8257
1980-03-02 11:32:59,1,-3.35714,1.02143,-1.48571,0.347953,1,1,19747.6,20751.3,1692,0.98012656,-0.93018425,137.08521,281.22192,3.3576,379.346,-4.7905,-15.3621,18.0557,18.5089
1980-03-02 11:33:40,1,-3.62143,1.16429,-0.421429,1.83341,1,1,16292.4,16993.6,1692,0.98012656,-0.9301843,137.07739,281.22192,2.61485,367.078,8.36424,-2.28368,16.4003,16.7494
1980-03-02 11:34:21,1,-2.25714,2.87857,-0.7,0.494098,1,1,19689.9,29642.8,1692,0.98012573,-0.93024528,137.07324,281.22168,2.69113,392.288,20.3357,-5.97879,18.0293,22.1217
1980-03-02 11:35:01,1,-2.74286,2.55,-0.685714,0.697261,1,1,17585.8,21665.0,1692,0.98012489,-0.93030626,137.06519,281.22144,3.45628,386.73,14.3002,-5.11029,17.0388,18.912
1980-03-02 11:35:42,1,-2.73333,2.47333,-0.753333,0.432049,1,1,25255.3,23044.6,1692,0.98012489,-0.93030632,137.06128,281.22144,2.70011,385.411,3.90924,-8.69167,20.419,19.5048
1980-03-02 11:36:22,1,-2.03571,2.51429,-1.1,0.738207,1,1,25131.9,26415.4,1692,0.98012406,-0.93036729,137.05322,281.22119,3.28923,390.678,13.1494,-7.34976,20.369,20.8827
1980-03-02 11:37:43,1,-2.23571,3.18571,-0.0142857,0.404124,1,1,21778.1,25321.1,1692,0.98012322,-0.93042833,137.04126,281.22095,3.3159,390.419,17.3339,-1.01136,18.9613,20.4456
1980-03-02 11:38:24,1,-3.02,2.61333,-0.293333,0.548371,1,1,20252.3,24397.9,1692,0.98012233,-0.9304893,137.0332,281.2207,2.75176,380.77,8.87694,-5.52478,18.285,20.0694
1980-03-02 11:39:45,1,-3.20714,2.87857,1.49286,1.15146,1,1,21287.4,23570.0,1692,0.98012149,-0.93055034,137.02124,281.22046,2.60948,379.787,22.4497,23.3554,18.7464,19.7259
1980-03-02 11:40:25,1,-3.27143,2.07143,-0.721429,0.809793,1,1,24726.1,26515.3,1692,0.98012066,-0.93061131,137.01733,281.22046,3.11812,376.17,7.04078,-4.68774,20.2039,20.9221
1980-03-02 11:41:06,1,-3.42667,1.68667,-0.613333,1.05969,1,1,17846.7,27211.0,1692,0.98011982,-0.93067229,137.00928,281.22021,2.80826,378.094,3.0511,-6.39152,17.1647,21.1948